Flag for Vatican City State Weather past 2 weeks in Vatican City, Vatican City State

Now
43 °F

Passing clouds.


Feels Like: 37 °F
Forecast: 38 / 58 °F
Wind: 9 mph from North

Location: Rome / Ciampino

Current Time: Mar 7, 2015 at 1:07:29 AM

Latest Report: Mar 7, 2015 at 12:15 AM


Visibility: N/A

Pressure: 30.18 "Hg

Humidity: 39%

Dew point: 19 °F

Location of Vatican CityLocation

Historic Weather in Vatican City — Graph

°F

Vatican City temperature yesterday

Maximum temperature yesterday: 55 °F (at 1:15 PM)
Minimum temperature yesterday: 41 °F (at 2:45 AM)
Average temperature yesterday: 47 °F

Past Weeks' High & Low Weather Summary

 TemperatureHumidityPressure
High66 °F (Mar 3, 1:45 PM)100% (Feb 20, 4:15 AM)30.36 "Hg (Feb 20, 4:15 AM)
Low34 °F (Feb 20, 5:45 AM)26% (Mar 6, 1:15 PM)29.33 "Hg (Feb 22, 1:45 PM)
Average50 °F76%29.85 "Hg
* Reported Feb 19 11:15 PM — Mar 6 11:45 PM, Vatican City, Weather by CustomWeather, © 2015

Note: Actual official high and low records may vary slightly from our data, if they occured in-between our weather recording intervals... More about our weather records

Advertising

Vatican City weather history for previous 24 hours

 ConditionsComfort  
Time TempWeatherWind HumidityBarometerVisibility
11:45 PM
Fri, Mar 6
43 °FPassing clouds.9 mph39%30.18 "HgN/A
11:15 PM43 °FClear.10 mph39%30.18 "Hg10 mi
10:45 PM43 °FClear.9 mph39%30.18 "Hg10 mi
10:15 PM45 °FPassing clouds.8 mph37%30.18 "HgN/A
9:45 PM45 °FPassing clouds.10 mph39%30.18 "HgN/A
9:15 PM45 °FPassing clouds.7 mph39%30.15 "HgN/A
8:45 PM45 °FClear.13 mph37%30.15 "Hg10 mi
8:15 PM46 °FPassing clouds.13 mph34%30.12 "HgN/A
7:45 PM46 °FPassing clouds.14 mph34%30.12 "HgN/A
7:15 PM46 °FPassing clouds.17 mph34%30.12 "HgN/A
6:45 PM46 °FPassing clouds.14 mph34%30.09 "HgN/A
6:15 PM48 °FClear.17 mph34%30.09 "Hg10 mi
5:45 PM50 °FPassing clouds.18 mph30%30.09 "HgN/A
5:15 PM50 °FPassing clouds.18 mph32%30.07 "HgN/A
4:45 PM52 °FPassing clouds.18 mph30%30.07 "HgN/A
4:15 PM54 °FPassing clouds.16 mph28%30.07 "HgN/A
3:45 PM55 °FPassing clouds.17 mph28%30.04 "HgN/A
3:15 PM55 °FPassing clouds.16 mph26%30.04 "HgN/A
2:45 PM55 °FPassing clouds.14 mph26%30.04 "HgN/A
2:15 PM55 °FPassing clouds.21 mph26%30.04 "HgN/A
1:45 PM55 °FPassing clouds.14 mph26%30.04 "HgN/A
1:15 PM55 °FPassing clouds.15 mph26%30.04 "HgN/A
12:45 PM54 °FPassing clouds.17 mph28%30.04 "HgN/A
12:15 PM54 °FPassing clouds.21 mph28%30.04 "HgN/A
11:45 AM54 °FPassing clouds.20 mph28%30.04 "HgN/A
11:15 AM54 °FPassing clouds.15 mph30%30.01 "HgN/A
10:45 AM52 °FPassing clouds.15 mph32%30.01 "HgN/A
10:15 AM50 °FPassing clouds.16 mph35%30.01 "HgN/A
9:45 AM50 °FPassing clouds.18 mph37%29.98 "HgN/A
9:15 AM48 °FPassing clouds.15 mph37%29.98 "HgN/A
8:45 AM46 °FPassing clouds.17 mph46%29.98 "HgN/A
8:15 AM46 °FPassing clouds.14 mph50%29.98 "HgN/A
7:45 AM43 °FPassing clouds.14 mph61%29.95 "HgN/A
7:15 AM43 °FPassing clouds.15 mph61%29.95 "HgN/A
6:45 AM41 °FScattered clouds.20 mph66%29.92 "HgN/A
6:15 AM41 °FPassing clouds.21 mph70%29.92 "HgN/A
5:45 AM41 °FPassing clouds.20 mph70%29.92 "HgN/A
5:15 AM41 °FPassing clouds.23 mph70%29.92 "HgN/A
4:45 AM41 °FPassing clouds.20 mph70%29.92 "HgN/A
4:15 AM41 °FPassing clouds.23 mph70%29.92 "HgN/A
3:45 AM41 °FPassing clouds.23 mph66%29.92 "HgN/A
3:15 AM41 °FPassing clouds.16 mph70%29.92 "HgN/A
2:45 AM41 °FPassing clouds.18 mph70%29.92 "HgN/A
2:15 AM43 °FPassing clouds.23 mph66%29.92 "HgN/A
1:45 AM43 °FPassing clouds.20 mph66%29.92 "HgN/A
1:15 AM43 °FPassing clouds.21 mph66%29.92 "HgN/A
Weather by CustomWeather, © 2015

See weather overviewHow to use our weather pages